Location: Newark
(49.3000°N, 9.4667°E)
Time: 23:08:38
(UTC+00:00)

Transit 2A Rocket - Pass Details

Date: 27 May 2019
Orbit: 586 x 917 km, 66.7° (Epoch: 20 June)

Event Time Altitude Azimuth Distance (km) Brightness Sun altitude
Rises 22:11:38 0° 322° (NW) 3,499 9.7 -17.7°
Reaches altitude 10° 22:14:45 10° 337° (NNW) 2,515 8.9 -17.9°
Maximum altitude 22:19:20 23° 29° (NNE) 1,685 7.3 -18.1°
Drops below altitude 10° 22:23:38 10° 81° (E) 2,344 7.5 -18.3°
Sets 22:26:25 0° 96° (E) 3,207 8.0 -18.4°
